Location: ?
(35.3544°N, 139.4507°E)
Time: 12:23:24
(UTC+00:00)

Cosmos 2360 Rocket - Pass Details

Date: 03 August 2024
Orbit: 834 x 843 km, 71.0° (Epoch: 11 September)

Event Time Altitude Azimuth Distance (km) Brightness Sun altitude
Exits shadow 16:33:41 59° 33° (NNE) 972 2.6 -31.8°
Drops below altitude 10° 16:38:13 10° 23° (NNE) 2,466 5.5 -31.3°
Sets 16:40:40 0° 23° (NNE) 3,403 6.5 -31.1°
